This demonstration page uses our WeatherBlox Daily Observations layout. Learn more.

Left ArrowRight Arrow

Hourly Observations for March 14, 2016

Temp ( °F °C ) Dew Point ( °F °C ) Humidity (%) Winds ( mph kmh ) Pressure ( in mb ) Visibility ( mi km ) Precip ( " mm )
12:02 am 00:02 Clear with Mist and Fog 57 13.9 57 13.9 100 100 N N/A 29.74 1007 1 1 N/A
12:40 am 00:40 Partly Cloudy with Fog 55 12.8 55 12.8 100 100 N N/A 29.74 1007 0 0 N/A
12:53 am 00:53 Mostly Cloudy with Fog 55 12.8 55 12.8 100 100 N N/A 29.75 1007 0 0 N/A
1:17 am 01:17 Clear with Fog 54 12.2 53 11.7 97 97 N N/A 29.77 1008 1 1 N/A
1:30 am 01:30 Mostly Cloudy with Fog 53 11.7 53 11.7 100 100 N N/A 29.74 1007 0 0 N/A
1:53 am 01:53 Mostly Cloudy with Fog 53 11.7 52 11.1 96 96 N N/A 29.75 1007 1 1 N/A
2:00 am 02:00 Clear with Mist and Fog 52 11.1 52 11.1 100 100 N N/A 29.77 1008 1 1 N/A
2:50 am 02:50 Partly Cloudy with Mist and Fog 54 12 54 12 100 100 N N/A 29.77 1008 2 2 N/A
2:53 am 02:53 Partly Cloudy with Mist and Fog 53 11.7 52 11.1 96 96 N N/A 29.76 1008 1 2 N/A
3:01 am 03:01 Mostly Clear with Mist and Fog 53 11.7 52 11.1 96 96 N N/A 29.77 1008 2 3 N/A
3:14 am 03:14 Mostly Clear with Mist and Fog 53 11.7 53 11.7 100 100 N N/A 29.77 1008 5 8 N/A
3:28 am 03:28 Mostly Clear with Mist and Fog 53 11.7 53 11.7 100 100 N N/A 29.77 1008 2 3 N/A
3:36 am 03:36 Clear with Mist and Fog 52 11.1 52 11.1 100 100 N N/A 29.77 1008 1 2 N/A
3:41 am 03:41 Clear with Mist and Fog 52 11.1 52 11.1 100 100 N N/A 29.74 1007 2 3 N/A
3:53 am 03:53 Clear with Mist and Fog 54 12.2 54 12.2 100 100 N N/A 29.75 1007 6 10 N/A
4:01 am 04:01 Clear with Mist and Fog 53 11.7 52 11.1 96 96 N N/A 29.74 1007 2 3 N/A
4:10 am 04:10 Clear with Mist and Fog 52 11.1 51 10.6 97 97 E 3 6 29.74 1007 3 5 N/A
4:53 am 04:53 Clear with Mist and Fog 55 12.8 54 12.2 96 96 ESE 5 7 29.74 1007 3 5 N/A
4:58 am 04:58 Clear with Mist and Fog 55 12.8 54 12.2 96 96 ESE 3 6 29.74 1007 2 3 N/A
5:03 am 05:03 Clear with Mist and Fog 54 12.2 54 12.2 100 100 ESE 5 7 29.74 1007 1 1 N/A
5:22 am 05:22 Mostly Cloudy with Mist and Fog 55 12.8 54 12.2 96 96 ESE 3 6 29.74 1007 1 2 N/A
5:30 am 05:30 Mostly Cloudy with Fog 53 11.7 53 11.7 100 100 ESE 3 6 29.74 1007 1 1 N/A
5:53 am 05:53 Mostly Cloudy with Fog 53 11.7 53 11.7 100 100 E 3 6 29.74 1007 0 0 N/A
6:53 am 06:53 Mostly Cloudy with Fog 53 11.7 52 11.1 96 96 ESE 5 7 29.74 1007 0 0 N/A
7:53 am 07:53 Mostly Cloudy with Fog 51 10.6 51 10.6 100 100 N N/A 29.75 1008 0 0 N/A
8:14 am 08:14 Partly Cloudy with Fog 54 12.2 53 11.7 97 97 N N/A 29.77 1008 1 1 N/A
8:17 am 08:17 Partly Cloudy with Mist and Fog 53 11.7 53 11.7 100 100 N N/A 29.77 1008 2 3 N/A
8:23 am 08:23 Partly Cloudy with Mist and Fog 55 12.8 54 12.2 96 96 N N/A 29.77 1008 3 5 N/A
8:53 am 08:53 Sunny with Mist and Fog 57 13.9 56 13.3 96 96 N N/A 29.75 1007 4 6 N/A
9:10 am 09:10 Partly Cloudy with Mist and Fog 57 13.9 56 13.3 96 96 N N/A 29.74 1007 4 6 N/A
9:19 am 09:19 Mostly Cloudy with Mist and Fog 57 13.9 57 13.9 100 100 N N/A 29.74 1007 5 8 N/A
9:53 am 09:53 Partly Cloudy 60 15.6 58 14.4 93 93 VRB 3 6 29.73 1007 7 11 N/A
10:53 am 10:53 Mostly Cloudy 62 16.7 60 15.6 93 93 E 3 6 29.71 1006 10 16 N/A
11:53 am 11:53 Cloudy with Light Rain 64 17.8 58 14.4 81 81 E 3 6 29.70 1006 7 11 0.01 0.25
12:53 pm 12:53 Cloudy with Heavy Rain 63 17.2 59 15 87 87 VRB 6 9 29.69 1005 3 4 0.08 2.03
1:01 pm 13:01 Cloudy with Light Rain 63 17.2 60 15.6 90 90 VRB 3 6 29.68 1005 9 14 N/A
1:08 pm 13:08 Cloudy 63 17.2 60 15.6 90 90 S 6 9 29.68 1005 10 16 N/A
1:53 pm 13:53 Mostly Cloudy 66 18.9 58 14.4 75 75 SW 8 13 29.67 1005 10 16 N/A
2:53 pm 14:53 Mostly Sunny 69 20.6 54 12.2 59 59 SW 8 13 29.64 1004 10 16 N/A
3:53 pm 15:53 Partly Cloudy 70 21.1 53 11.7 55 55 WSW 13 20 29.63 1003 10 16 N/A
4:53 pm 16:53 Partly Cloudy 69 20.6 52 11.1 55 55 W 14 22 29.63 1003 10 16 N/A
5:53 pm 17:53 Mostly Cloudy 67 19.4 55 12.8 66 66 WNW 9 15 29.64 1004 10 16 N/A
6:53 pm 18:53 Cloudy 64 17.8 53 11.7 68 68 WNW 13 20 29.66 1005 10 16 N/A
7:53 pm 19:53 Cloudy 61 16.1 53 11.7 75 75 NW 7 11 29.69 1005 10 16 N/A
8:53 pm 20:53 Cloudy 61 16.1 54 12.2 78 78 WNW 8 13 29.71 1006 10 16 N/A
9:53 pm 21:53 Cloudy with Light Rain 60 15.6 56 13.3 86 86 W 5 7 29.74 1007 10 16 N/A
10:53 pm 22:53 Cloudy 60 15.6 54 12.2 80 80 W 6 9 29.75 1007 10 16 N/A
11:53 pm 23:53 Mostly Cloudy 59 15 54 12.2 83 83 W 5 7 29.77 1008 10 16 N/A

Powered by AerisWeather